ONEWEB-0306 (49188 NORAD) Tracking and Keplerian Element Data

This shows tracking and keplerian element data for the satellite.

Feedback or suggestion? Click here.




ElementValue
Catalog49188
NameONEWEB-0306
Epoch Orbit776
Epoch Day300.83334491
Epoch Year2021
RAAN314.0043
Inclination87.5904
Eccentricity0.0024207
Argument of Perigee142.3668
Mean Anonmoly182.0823
Mean Motion14.54653036
Decay Rate-0.01346742
L11 49188U 21083C 21300.83334491 -.01346742 00000-0 -33911+0 0 9990
L22 49188 87.5904 314.0043 0024207 142.3668 182.0823 14.54653036 7766

Live tracking and technical data element details for ONEWEB-0306 (NORAD 49188). ONEWEB-0306 can be tracked NOW for your location showing map with azimuth and elevation plus other details from your city location.

Track the satellite on the map from your city or location and see movement details for azimuth, elevation, latitude, longitude, range, height, and movement on the map or in text.







IsCatalogInMostPopularTable: catalog: 49188, numindb: 12
Update: records affected: 1



GetName: 49188 ONEWEB-0306

Hit Count: updated at: Thu, 28 Oct 2021 11:32:20 GMT